Location: Garstedt
(53.6772°N, 9.9686°E)
Time: 08:05:20
(UTC+00:00)

Daily predictions for brighter satellites

Satellite Brightness Start Highest point End
(mag) Time Altitude Azimuth Time Altitude Azimuth Time Altitude Azimuth
Cosmos 44 4.1 17:05:26 10° NW 17:09:15 29° NNE 17:13:07 10° E
SL-4 R/B 3.1 17:07:06 10° W 17:11:47 52° SSW 17:16:16 10° ESE
Cosmos 1315 Rocket 4.4 17:08:28 10° NNW 17:12:12 41° W 17:15:55 10° SSW
Cosmos 1503 Rocket 4.0 17:07:54 10° NNW 17:13:16 77° ENE 17:18:32 10° SSE
Okean-O 2.8 17:11:08 10° SSE 17:15:35 79° WSW 17:20:03 10° NNW
NOSS 5 (C) 4.4 17:12:18 10° SW 17:16:01 86° NW 17:19:05 10° NE
CENTAUR R/B 3.6 17:10:32 10° W 17:16:55 46° NNW 17:24:23 10° NE
Meteor 2-6 Rocket 4.3 17:11:51 10° N 17:17:26 54° ENE 17:22:49 10° SSE
Cosmos 2100 Rocket 4.1 17:11:28 10° S 17:17:40 58° E 17:23:52 10° NNE
Cosmos 1633 3.4 17:15:37 10° SSE 17:18:44 29° E 17:21:53 10° NNE
FALCON 9 DEB 3.2 17:18:08 10° W 17:21:35 82° S 17:24:58 10° E
ATLAS 3B R/B 3.4 17:16:24 10° W 17:22:47 47° NNW 17:29:15 10° NE
Cosmos 2228 Rocket 3.3 17:18:47 10° NNW 17:23:19 80° W 17:27:52 10° S
Cosmos 1943 Rocket 3.6 17:24:56 10° SE 17:28:08 16° E 17:31:19 10° ENE
CZ-4 R/B 4.5 17:24:17 10° SSE 17:28:24 88° WSW 17:32:35 10° NNW
deb Kosmos-1763 4.1 17:25:20 10° NNW 17:28:58 55° ENE 17:32:35 10° SE
Cosmos 2061 Rocket 4.3 17:24:16 10° SSE 17:30:24 50° E 17:36:32 10° NNE
Cosmos 1607 4.0 17:25:16 10° NW 17:31:35 83° NE 17:37:57 10° SE
Cosmos 1459 Rocket 3.9 17:26:44 10° S 17:32:42 67° E 17:38:44 10° NNE
STARLINK-29 3.1 17:31:37 10° W 17:35:02 82° S 17:37:51 14° E
Cosmos 2297 4.1 17:31:46 10° S 17:37:01 40° ESE 17:42:15 10° NE
USA 116 4.1 17:35:33 10° NNE 17:38:57 39° E 17:42:44 10° S
YAOGAN 6 4.2 17:38:05 10° SSW 17:41:23 38° W 17:44:42 10° NNW
Cosmos 1825 4.3 17:38:30 10° SW 17:41:49 29° WNW 17:45:10 10° N
Cosmos 1725 Rocket 4.2 17:36:23 10° SSE 17:42:15 47° E 17:48:09 10° NNE
COSMO-SKYMED 1 2.5 17:37:56 10° NNE 17:42:19 79° ESE 17:46:40 10° SSW
FREGAT/IRIS 4.1 17:43:20 17° ENE 17:43:20 17° ENE 17:45:06 10° NNE
CZ-2D R/B 3.2 17:39:34 10° SSE 17:43:27 75° ENE 17:47:22 10° N
STARLINK-52 3.1 17:40:38 10° W 17:44:04 82° S 17:46:31 18° E
CZ-4 R/B 1.8 17:39:54 10° S 17:44:06 72° WSW 17:48:18 10° NNW
Cosmos 2285 Rocket 4.5 17:39:14 10° NNW 17:45:13 41° NE 17:51:12 10° ESE
Cosmos 1777 Rocket 4.2 17:40:16 10° NNW 17:45:28 51° ENE 17:50:37 10° SE
Cosmos 2346 Rocket 4.4 17:39:46 10° N 17:46:05 74° ENE 17:52:18 10° SSE
Cosmos 1805 Rocket 3.6 17:42:33 10° S 17:46:51 58° E 17:51:10 10° NNE
Cosmos 1862 Rocket 4.1 17:43:51 10° N 17:47:49 34° ENE 17:51:46 10° SE
Cosmos 1812 3.0 17:44:47 10° N 17:48:30 43° ENE 17:52:12 10° SE
Tsikada Rocket 4.0 17:42:45 10° N 17:49:05 66° ENE 17:55:27 10° SSE
NOSS 3-1 (C) 4.4 17:45:36 10° SSE 17:49:57 24° ESE 17:53:24 15° ENE
Sich 1 3.2 17:46:17 10° SSE 17:50:24 47° E 17:54:32 10° NNE
Cosmos 1707 Rocket 3.5 17:46:55 10° N 17:51:21 70° ENE 17:55:47 10° SSE
Cosmos 1939 Rocket 2.9 17:47:20 10° SSE 17:51:28 89° W 17:55:39 10° NNW
Cosmos 1802 Rocket 4.0 17:45:56 10° S 17:52:11 76° E 17:58:34 10° NNE
Cosmos 1500 Rocket 4.1 17:49:51 10° SSW 17:54:16 63° WNW 17:58:45 10° N
Cosmos 2369 Rocket 3.4 17:50:23 10° SE 17:54:21 20° E 17:56:25 17° ENE
Meteor 1-27 Rocket 3.7 17:50:25 10° N 17:55:53 59° ENE 18:01:22 10° SSE
COSMOS 2487 4.4 17:54:16 10° NNE 17:56:09 14° NE 17:56:09 14° NE
Cosmos 2082 Rocket 3.9 17:51:19 10° NW 17:56:28 37° WSW 18:01:35 10° S
Lacrosse 5 rocket 1.5 17:52:25 10° WSW 17:56:53 86° SSE 18:00:15 18° ENE
Cosmos 2263 Rocket 4.4 17:54:13 10° NW 17:57:28 15° NNW 18:00:43 10° NNE
Cosmos 1992 Rocket 3.9 17:52:53 10° SSW 17:58:05 69° ESE 18:03:19 10° NNE
SL-08 R/B 4.5 17:55:04 10° S 18:01:21 66° E 18:07:35 10° NNE
Cosmos 1864 Rocket 4.4 17:55:56 10° S 18:02:01 64° E 18:08:06 10° NNE
STARLINK-80 3.8 17:59:49 10° SW 18:03:31 49° SSE 18:05:24 25° E
Cosmos 292 Rocket 3.7 18:03:21 10° SSW 18:08:08 71° ESE 18:12:56 10° NNE
IRS-1A Rocket 4.2 18:04:44 10° SSE 18:10:12 66° ENE 18:15:41 10° NNW
CZ-2C R/B 3.6 18:05:09 10° SE 18:10:39 45° ENE 18:16:06 10° N
STARLINK-60 3.3 18:07:40 10° W 18:10:56 60° SSW 18:12:25 28° SE
Cosmos 1238 Rocket 4.1 18:04:53 10° S 18:11:09 89° E 18:17:52 10° N
H-2A R/B 2.3 18:07:11 10° SE 18:12:20 51° ENE 18:17:37 10° N
SL-08 RB Rocket 4.4 18:14:39 25° ESE 18:16:17 33° ENE 18:20:19 10° N
STARLINK-43 3.3 18:12:37 10° WSW 18:16:18 72° S 18:17:45 34° E
HJ-1C 3.3 18:14:12 10° SSE 18:17:31 88° W 18:20:51 10° NNW
SL-27 R/B 2.2 18:14:25 10° NNW 18:17:50 78° ENE 18:19:54 21° SSE
Cosmos 2016 Rocket 4.0 18:13:21 10° S 18:19:27 85° W 18:25:39 10° N
Okean 1-7 4.0 18:23:35 10° N 18:26:56 28° ENE 18:26:56 28° ENE
SJ 16-02 2.6 18:24:40 10° N 18:28:15 24° NE 18:28:15 24° NE
Ariane Rocket 3.0 18:23:48 10° SSE 18:28:55 88° WSW 18:34:04 10° NNW
DMSP B5D1-3 4.4 18:23:46 10° NNE 18:28:56 86° ESE 18:34:06 10° SSW
YAOGAN 1 4.3 18:26:06 10° SSW 18:30:03 34° W 18:34:02 10° NNW
Cosmos 2297 Rocket 3.8 18:27:28 10° NNW 18:31:27 19° NNE 18:33:07 17° NE
USA 234 3.2 18:27:26 26° E 18:31:28 79° NNE 18:38:01 10° WNW
ADEOS Rocket 3.5 18:24:46 10° NNE 18:32:27 81° ESE 18:40:16 10° SSW
Cosmos 921 Rocket 3.3 18:28:59 10° S 18:33:18 48° ESE 18:35:46 23° NE
STARLINK-61 4.4 18:30:27 10° SSW 18:33:56 31° SSE 18:33:58 31° SSE
MetOp-A 4.5 18:34:12 31° ESE 18:36:12 44° ENE 18:41:17 10° N
USA 229 DEB 3.8 18:30:53 10° SSW 18:37:08 48° ESE 18:40:52 25° ENE
USA 229 3.8 18:31:01 10° SSW 18:37:15 48° ESE 18:40:55 25° ENE
Cosmos 2233 Rocket 3.8 18:31:15 10° S 18:37:22 73° E 18:43:33 10° NNE
Cosmos 2278 Rocket 3.5 18:32:13 10° WSW 18:37:30 38° NW 18:42:47 10° NNE
SJ-11-01 4.3 18:33:33 10° SSE 18:38:14 79° WSW 18:42:57 10° NNW
ARGOS 3.1 18:32:58 10° SSE 18:38:21 69° ENE 18:43:46 10° NNW
Cosmos 1633 Rocket 2.9 18:37:19 10° S 18:41:40 88° E 18:46:02 10° NNE
STARLINK-48 3.5 18:39:23 10° WSW 18:43:12 56° SSE 18:43:33 54° SE
Cosmos 1666 Rocket 3.7 18:39:15 10° SSW 18:43:44 76° WNW 18:48:15 10° N
NOSS 3-1 (A) 3.9 18:39:25 10° S 18:44:25 34° ESE 18:44:29 34° ESE
Lacrosse 4 Rocket 1.4 18:41:28 10° SW 18:45:41 83° NW 18:47:52 29° NE
SJ-6B 2.5 18:45:54 59° SE 18:46:28 73° ENE 18:50:14 10° N
Cosmos 2227 Rocket 3.7 18:45:00 10° NNW 18:49:09 20° NNE 18:50:10 19° NE
Cosmos 1937 Rocket 4.2 18:45:48 10° NNW 18:50:38 34° NE 18:50:52 34° NE
SL-4 R/B 4.4 18:47:18 10° W 18:50:50 21° SW 18:53:46 12° S
Cosmos 44 3.0 18:46:31 10° NW 18:50:54 83° SW 18:52:10 46° SE
Cosmos 990 Rocket 4.4 18:46:21 10° NNW 18:51:15 41° NE 18:51:39 40° ENE
Resurs 1-3 3.9 18:52:30 47° ENE 18:52:30 47° ENE 18:56:32 10° N
SPOT 3 Rocket 3.5 18:50:01 31° SE 18:52:30 68° ENE 18:57:42 10° NNW
Cosmos 724 4.2 18:47:34 10° NW 18:53:25 84° SW 18:56:12 33° SE
Cosmos 1862 4.3 18:49:47 10° SSW 18:53:39 47° WNW 18:57:32 10° N
Resurs 01 Rocket 2.4 18:56:16 36° NE 18:56:16 36° NE 18:59:34 10° N
Cosmos 2242 Rocket 3.5 18:51:53 10° N 18:56:24 86° E 18:58:26 33° SSE
Cosmos 1932 4.5 18:51:17 10° NW 18:57:54 83° NE 19:00:43 37° SE
FALCON 9 DEB 3.7 18:55:11 10° W 18:58:18 51° SW 18:58:18 51° SW
STARLINK-26 4.1 18:59:07 10° WSW 19:01:39 42° SW 19:01:39 42° SW
Cosmos 2219 4.3 18:59:57 10° NNW 19:04:53 28° NE 19:05:12 28° NE
Cosmos 1513 Rocket 4.5 19:04:05 36° SE 19:06:08 51° E 19:12:05 10° NNE
CENTAUR R/B 3.7 19:02:30 10° WNW 19:09:15 41° N 19:12:43 28° ENE
Cosmos 1943 Rocket 2.0 19:05:25 10° SSW 19:10:59 76° ESE 19:13:26 35° NE
STARLINK-29 4.3 19:08:23 10° W 19:10:54 39° WSW 19:10:54 39° WSW
Cosmos 1891 Rocket 4.4 19:07:24 10° S 19:13:24 59° E 19:19:34 10° NNE
ATLAS 3B R/B 3.7 19:08:51 10° WNW 19:14:54 35° N 19:17:38 26° NE
Meteor 2-11 Rocket 4.4 19:14:52 54° ESE 19:15:20 56° E 19:21:17 10° NNE
Cosmos 1470 Rocket 3.8 19:19:15 10° SSW 19:23:34 65° WNW 19:27:57 10° N
SL-24 DEB 4.2 19:24:56 74° N 19:24:56 74° N 19:29:14 10° N
Meteor 1-18 Rocket 4.2 19:19:04 10° NNW 19:25:04 86° ENE 19:26:37 52° SSE
USA 238 DEB 4.2 19:18:57 10° NW 19:25:44 49° NNE 19:27:21 42° ENE
USA 238 4.2 19:19:02 10° NW 19:25:50 48° NNE 19:27:26 42° ENE
ARGOS Delta rocket 3.8 19:27:54 65° SW 19:28:10 67° W 19:32:34 10° NNW
Cosmos 1898 Rocket 3.5 19:24:21 10° NNW 19:29:10 70° NNE 19:29:10 70° NNE
Cosmos 44 Rocket 3.8 19:29:09 10° NW 19:32:58 50° N 19:32:58 50° N
Timation 2 Rocket 4.1 19:27:30 10° NNW 19:34:23 75° NE 19:35:24 64° ESE
Lacrosse 5 rocket 2.2 19:31:54 10° W 19:35:54 53° NNW 19:35:54 53° NNW
USA 267 3.9 19:38:57 37° S 19:38:57 37° S 19:43:28 10° SSW
Cosmos 1464 Rocket 3.9 19:31:07 10° S 19:37:27 82° E 19:43:53 10° NNE
Cosmos 2369 Rocket 2.1 19:31:58 10° SSW 19:37:39 89° WNW 19:38:20 71° NNE
NOSS 3-1 (C) 3.3 19:34:08 10° SW 19:39:51 90° SSE 19:40:53 65° NE
Cosmos 1703 Rocket 4.2 19:37:22 10° NNW 19:41:22 54° WNW 19:41:22 54° WNW
Nadezhda 4 Rocket 3.9 19:36:37 10° N 19:42:56 87° E 19:43:39 72° SSE
Cosmos 2263 Rocket 4.3 19:40:41 10° NNW 19:43:53 15° NNE 19:44:42 15° NNE
CZ-2C R/B 4.4 19:45:05 10° SSW 19:50:34 41° W 19:56:01 10° NNW
H-2A R/B 3.7 19:47:15 10° SSW 19:52:00 32° W 19:56:52 10° NNW
Cosmos 2034 Rocket 4.4 19:55:48 48° NNE 19:55:48 48° NNE 20:00:09 10° NNE
Meteor 1-20 Rocket 4.5 19:58:06 61° NNW 19:58:06 61° NNW 20:02:52 10° N
Terra 4.2 20:04:33 14° N 20:04:33 14° N 20:05:25 10° N
SJ 16-02 3.1 20:02:53 10° NNW 20:05:16 30° NW 20:05:16 30° NW
USA 234 3.5 20:14:46 58° SW 20:14:46 58° SW 20:21:10 10° WNW
Cosmos 2297 Rocket 3.4 20:11:21 10° NNW 20:14:56 35° N 20:14:56 35° N
NOSS 3-2 (C) 4.2 20:12:34 10° NW 20:19:19 56° NNE 20:19:19 56° NNE
Cosmos 1092 Rocket 4.3 20:14:44 10° NNW 20:20:06 64° NNW 20:20:06 64° NNW
NOSS 3-2 (A) 4.0 20:14:51 10° NW 20:21:36 67° NNE 20:21:36 67° NNE
Lacrosse 4 Rocket 3.9 20:21:39 10° W 20:24:13 21° NW 20:24:13 21° NW
USA 229 DEB 4.0 20:21:23 10° WSW 20:28:00 62° NNW 20:28:22 61° NNW
USA 229 4.0 20:21:29 10° WSW 20:28:06 63° NNW 20:28:25 62° NNW
Resurs 01 Rocket 3.9 20:33:50 23° NW 20:33:50 23° NW 20:35:59 10° NNW
Cosmos 2227 Rocket 3.6 20:28:51 10° NNW 20:32:00 32° NNW 20:32:00 32° NNW
Cosmos 1943 Rocket 3.8 20:50:25 10° W 20:55:04 30° NW 20:55:04 30° NW
CENTAUR R/B 3.4 20:53:39 10° NW 20:59:54 58° NNW 20:59:54 58° NNW
ATLAS 3B R/B 3.7 21:00:22 10° NW 21:04:53 40° NNW 21:04:53 40° NNW
Cosmos 2369 Rocket 4.3 21:17:41 10° W 21:20:16 21° WNW 21:20:16 21° WNW
